Theta_e
324 323 324 324 324 323 322 322 323 325 323 321 320 319 318 318 316 315 314 313 315 315 315 314 314 313 310 314 314 313 311 311 310 309 307 308 310 309
324 325 323 324 324 323 322 323 322 323 323 320 320 319 319 319 318 317 315 312 311 314 315 315 314 314 313 310 313 313 312 311 310 310 310 306 306 309
324 324 324 324 324 323 322 322 322 322 322 321 320 320 318 318 318 317 317 316 314 311 312 314 314 314 313 313 310 310 312 311 311 310 311 309 305 307
324 324 324 324 324 324 323 323 322 322 321 320 319 319 318 317 317 317 317 317 317 316 312 312 313 314 313 313 312 311 309 311 311 310 310 311 309 305
323 323 323 324 323 323 322 322 321 321 320 319 317 317 318 318 317 316 317 317 317 317 315 312 312 312 312 312 312 311 309 306 310 311 310 311 310 309
322 322 322 322 322 322 322 321 321 320 318 317 316 316 317 317 316 316 317 316 315 316 316 313 312 312 311 311 311 311 311 307 305 310 312 311 311 310
321 321 321 321 320 321 320 319 319 319 318 317 316 316 315 315 315 316 315 315 316 314 314 314 312 312 313 312 311 310 309 310 308 305 307 310 311 311
321 320 319 319 318 317 317 317 318 318 318 317 316 316 316 317 316 315 315 315 315 316 313 313 313 313 313 313 313 312 310 309 310 308 306 306 308 310
321 320 319 317 317 316 316 316 316 316 316 317 317 317 317 317 316 316 314 313 313 314 313 313 314 314 314 312 313 312 310 309 308 309 309 308 306 306
318 319 318 317 316 315 314 314 315 316 316 316 318 317 317 317 316 316 314 314 313 313 312 310 312 312 312 312 312 311 310 309 309 308 308 308 308 307
316 317 317 316 316 316 316 316 316 316 315 315 316 315 315 315 316 315 314 312 310 311 312 309 311 311 312 312 311 312 310 310 309 308 308 308 308 308
314 315 315 315 315 315 313 315 315 314 314 314 314 314 314 315 315 314 314 312 310 309 312 310 309 310 309 311 310 309 309 309 308 307 307 307 307 307
311 312 313 314 314 314 313 312 313 314 314 313 314 312 312 313 314 314 314 314 311 311 313 310 310 309 309 307 306 307 307 307 306 306 306 306 306 306
308 310 311 312 311 311 311 311 312 312 313 313 312 312 312 312 313 313 313 313 313 312 312 312 311 309 308 306 305 305 304 304 304 303 304 304 305 305
302 305 308 309 309 310 310 311 311 312 312 312 312 311 311 313 313 313 313 311 311 310 311 311 311 310 309 308 307 304 304 304 304 302 303 303 304 304
298 301 303 305 307 308 309 310 310 310 310 310 310 310 310 311 312 312 312 311 310 310 310 308 309 308 308 307 306 304 303 304 302 301 302 302 302 302
295 298 300 302 304 306 307 308 309 309 309 309 309 309 310 311 311 312 310 310 306 308 308 307 307 308 306 305 304 304 304 303 303 302 300 300 300 300
294 296 298 300 301 303 305 306 307 308 308 308 309 309 309 309 310 310 309 307 305 306 306 307 305 302 302 302 302 304 303 302 302 300 299 298 297 297
294 297 298 299 300 301 302 303 304 306 307 307 308 308 308 308 307 306 305 304 302 304 305 306 303 300 297 299 300 302 303 303 301 297 297 296 295 294
291 291 292 293 294 295 297 298 299 301 303 304 305 306 306 306 305 303 302 301 301 301 300 302 301 301 301 301 299 302 301 301 300 295 293 293 293 292
285 286 287 288 289 291 292 293 295 297 298 300 302 303 304 304 303 303 302 302 301 300 298 297 306 308 302 301 297 295 296 295 297 296 292 291 289 288
281 281 282 283 284 286 287 289 290 292 294 296 298 300 301 302 302 301 301 299 299 299 300 301 300 297 297 298 298 293 292 291 291 292 293 293 291 287
277 278 278 279 280 282 282 285 286 288 290 291 293 295 297 298 299 300 300 300 299 298 298 297 297 296 296 296 296 291 289 288 289 289 289 290 290 289
Wind_Speed
26 28 22 18 16 15 12 12 11 7 7 7 6 5 5 9 9 9 9 11 14 17 17 16 15 16 14 14 14 12 10 9 8 6 8 9 10 7
19 26 27 20 22 18 15 13 13 12 9 11 9 9 8 12 13 12 13 11 11 14 18 18 18 18 17 16 16 16 15 12 12 11 9 8 10 12
16 18 20 18 15 16 14 14 14 13 15 16 11 11 11 11 13 15 15 15 13 13 15 17 18 20 19 19 19 19 18 17 15 15 13 10 8 11
19 17 18 16 17 15 15 16 16 15 15 16 15 14 12 13 13 13 16 19 19 18 16 16 16 19 20 21 21 21 22 22 20 17 17 14 11 9
21 21 18 17 18 16 17 18 16 16 16 15 15 12 13 11 12 14 17 18 20 21 19 19 18 18 20 21 22 22 23 23 24 23 21 19 16 13
21 22 21 21 20 18 20 21 19 17 18 16 19 17 14 14 14 14 16 15 17 19 21 21 20 19 20 21 22 22 23 23 25 25 23 22 21 19
20 19 21 21 21 19 20 22 22 20 20 20 18 14 15 15 15 13 15 15 16 16 19 23 24 24 22 21 22 22 22 23 25 25 26 25 24 23
20 20 21 23 21 20 20 20 22 22 22 19 17 16 20 19 19 20 15 14 9 12 15 19 24 26 26 23 22 21 20 21 23 24 25 26 25 25
20 20 20 22 21 18 18 20 23 24 25 20 20 20 20 20 18 17 16 17 18 18 16 14 17 25 25 23 23 22 22 22 21 23 25 25 25 25
17 22 21 21 22 23 23 23 26 28 31 30 28 25 23 24 21 23 24 23 22 21 20 11 15 14 17 19 19 19 20 20 21 22 23 24 24 24
17 16 20 22 23 25 21 20 19 19 25 25 27 28 29 30 29 27 26 21 12 15 19 18 14 16 16 17 19 19 19 19 18 20 22 22 22 22
19 22 24 25 24 25 24 19 21 25 27 27 29 26 27 28 29 27 29 22 15 7 19 18 18 12 5 16 19 18 16 17 18 18 19 20 20 21
20 22 24 27 28 27 27 26 28 26 23 26 26 25 25 26 27 28 30 30 26 25 13 17 13 18 11 5 8 14 14 15 15 15 17 18 19 20
17 20 24 25 25 23 22 24 29 28 27 24 23 23 25 28 29 29 27 33 32 30 23 19 15 19 15 8 7 11 13 13 14 13 12 13 13 15
9 17 23 22 23 23 22 22 24 27 29 25 24 26 29 29 27 25 26 28 30 30 26 25 23 21 18 15 9 12 10 13 13 13 14 15 18 18
12 13 15 21 25 23 25 25 24 28 29 27 27 28 29 30 29 27 26 28 28 30 28 25 25 24 22 21 18 12 16 9 14 15 16 17 18 18
17 14 15 17 16 21 25 27 26 28 28 30 28 29 32 32 33 31 29 29 29 30 30 28 26 25 24 23 22 20 18 18 16 18 20 21 19 18
16 14 15 15 16 17 17 20 25 29 30 30 30 31 33 33 35 34 32 33 31 33 33 33 28 23 21 22 25 20 22 21 19 22 23 23 20 19
14 13 14 14 15 16 17 19 24 26 28 30 32 34 34 34 33 34 33 32 31 32 35 35 34 27 11 8 14 28 26 25 24 27 28 25 25 22
10 12 12 14 15 17 18 18 19 21 25 27 28 29 31 31 32 31 31 29 28 28 28 35 35 37 28 17 17 23 29 29 31 32 30 24 16 19
9 10 12 13 15 17 19 20 21 21 23 23 27 31 29 29 31 32 31 32 31 26 24 28 45 44 39 29 13 12 23 27 31 37 33 26 20 18
12 12 12 13 13 13 16 19 22 22 22 22 24 28 28 27 31 30 29 28 29 30 34 35 34 31 32 29 20 18 23 25 25 28 30 29 18 15
13 15 14 15 15 15 14 16 19 22 22 22 23 23 26 27 31 30 30 30 30 29 28 27 32 33 32 32 24 22 25 30 29 27 24 24 16 11
Wind_Direction
235 237 231 237 235 236 232 235 247 269 268 275 266 249 265 299 296 287 284 272 254 249 251 252 248 251 253 243 238 246 270 261 275 266 264 255 235 226
232 235 236 237 248 242 235 235 237 242 267 270 258 255 270 288 284 287 285 284 267 253 251 252 251 249 251 248 244 240 245 251 257 263 273 268 239 225
228 227 230 229 232 229 233 233 234 232 248 262 259 262 263 273 278 280 280 280 282 273 263 255 249 245 248 247 248 247 242 245 248 254 257 259 254 236
231 230 229 231 230 231 224 230 228 230 234 252 266 266 266 274 267 262 274 272 275 275 265 259 254 244 246 247 248 249 245 242 240 245 250 253 252 247
232 232 230 228 234 228 226 226 227 228 230 240 260 271 267 268 270 271 273 269 271 269 266 257 253 250 246 247 249 252 249 244 242 243 246 247 247 246
235 235 234 232 233 233 229 229 227 227 227 234 252 263 260 267 267 271 271 273 270 270 262 257 254 251 252 251 251 252 249 245 243 242 242 244 245 245
233 232 232 230 232 232 232 238 245 239 234 234 241 249 251 255 253 265 263 272 269 259 262 255 249 248 251 254 254 252 252 247 243 242 241 242 244 245
235 231 234 236 233 236 244 250 252 248 244 235 234 234 252 251 257 271 258 266 281 261 248 250 249 250 251 253 257 256 255 252 245 243 243 242 243 244
232 230 229 238 237 236 242 248 251 252 251 243 236 240 251 251 254 257 252 254 252 264 263 266 260 254 252 251 252 249 249 249 246 244 243 243 242 242
235 232 236 236 240 241 242 246 250 252 250 250 244 250 251 261 257 257 261 269 270 268 259 253 249 241 238 243 246 245 247 248 246 244 243 242 241 241
243 238 236 242 244 248 247 246 243 251 266 262 257 263 264 262 261 258 246 238 242 257 253 231 246 242 246 243 249 249 251 250 250 248 243 241 241 240
250 254 249 248 250 254 256 249 249 256 259 261 264 258 258 257 256 251 249 230 224 230 249 223 236 226 230 238 245 249 249 252 252 249 244 240 237 236
254 254 257 258 257 253 262 255 253 257 258 258 262 266 265 260 256 255 246 248 237 238 241 219 222 213 216 223 239 237 239 246 242 240 235 232 229 226
258 262 261 259 264 274 272 256 255 257 256 251 253 253 257 260 261 257 252 247 249 249 238 236 228 215 210 212 226 234 231 236 239 240 233 230 223 221
285 263 256 262 267 274 262 261 257 255 250 247 246 248 253 266 267 262 256 246 245 239 234 237 232 235 233 229 227 228 222 232 226 230 226 221 218 212
300 285 282 270 257 262 259 260 252 248 247 248 247 249 257 261 258 258 250 245 239 237 236 233 228 230 235 235 236 230 223 211 214 215 212 208 209 206
310 302 293 285 278 259 253 252 253 253 244 248 249 251 254 254 255 254 246 244 231 229 230 221 220 227 230 236 229 228 223 221 222 212 204 203 202 201
300 293 286 282 277 269 258 258 254 249 250 251 253 250 251 252 254 248 244 238 230 228 225 220 215 213 220 232 231 228 221 223 223 210 202 196 194 195
278 282 271 274 278 284 282 276 271 272 267 258 258 252 252 251 251 251 247 237 230 230 232 227 217 206 188 215 226 225 224 220 215 203 202 202 200 193
281 285 288 289 291 288 288 287 287 282 277 275 267 264 258 255 249 244 242 234 232 228 226 228 220 214 209 212 206 221 220 222 210 201 197 200 206 192
315 308 299 291 291 292 292 291 285 284 283 282 281 272 267 258 256 249 246 245 235 224 216 223 234 237 225 222 198 199 210 214 220 205 195 186 173 177
322 312 310 305 299 295 296 299 293 287 285 279 272 273 270 269 261 255 251 240 234 228 231 236 232 220 215 210 209 192 191 196 204 205 205 195 183 185
323 316 312 307 304 304 298 295 296 294 288 285 278 275 270 270 266 264 257 250 242 235 229 219 218 218 213 212 205 184 182 178 181 182 189 199 203 211